EW2649 Weather Reports


Display with metric or nautical units.
time (UTC)temp
F
wind
direction
speed
MPH
gust
MPH
rain 1hr
in
rain 24hr
in
rain mn
in
humidity
%
barometer
mb
20260508161615 59 120 1.0 4.0 0.00 0.00 0.00 79 1015.2
20260508160033 57 91 2.0 4.0 0.00 0.00 0.00 81 1015.3
20260508154626 56 199 3.0 5.0 0.00 0.00 0.00 82 1015.6
20260508153043 55 96 0.0 3.0 0.00 0.00 0.00 87 1015.6
20260508151501 53 78 0.0 3.0 0.00 0.00 0.00 91 1015.5
20260508150053 51 52 1.0 3.0 0.00 0.00 0.00 92 1015.5
20260508144511 49 194 0.0 2.0 0.00 0.00 0.00 92 1015.6
20260508143103 47 193 1.0 3.0 0.00 0.00 0.00 92 1015.6
20260508141523 45 194 1.0 2.0 0.00 0.00 0.00 91 1015.6
20260508140111 45 194 0.0 1.0 0.00 0.00 0.00 91 1015.4
20260508134534 44 194 0.0 1.0 0.00 0.00 0.00 91 1015.3
20260508133120 45 194 2.0 3.0 0.00 0.00 0.00 91 1015.1
20260508131540 45 210 1.0 2.0 0.00 0.00 0.00 90 1015.2
20260508130130 46 212 0.0 2.0 0.00 0.00 0.00 90 1015.1
20260508124550 47 211 0.0 1.0 0.00 0.00 0.00 90 1015.0
20260508123013 48 211 0.0 3.0 0.00 0.00 0.00 90 1014.9
20260508121608 48 211 3.0 4.0 0.00 0.00 0.00 89 1014.9
20260508120026 49 225 1.0 2.0 0.00 0.00 0.00 89 1015.1
20260508114622 50 225 0.0 1.0 0.00 0.00 0.00 90 1014.9
20260508113040 50 220 1.0 3.0 0.00 0.00 0.00 90 1015.0
20260508111632 50 219 2.0 6.0 0.00 0.00 0.00 90 1014.9
20260508110047 50 175 2.0 5.0 0.00 0.00 0.00 91 1014.9
20260508104507 50 194 2.0 3.0 0.00 0.00 0.00 91 1014.9
20260508103058 50 242 1.0 3.0 0.00 0.00 0.00 91 1014.9
20260508101521 49 281 0.0 1.0 0.00 0.00 0.00 91 1014.8
20260508100107 49 281 0.0 1.0 0.00 0.00 0.00 91 1014.7
20260508094528 49 281 1.0 2.0 0.00 0.00 0.00 91 1014.7
20260508093121 48 180 0.0 1.0 0.00 0.00 0.00 91 1014.7
20260508091544 47 180 0.0 2.0 0.00 0.00 0.00 91 1014.7
20260508090132 47 181 0.0 2.0 0.00 0.00 0.00 91 1014.7
20260508084554 47 181 1.0 3.0 0.00 0.00 0.00 91 1014.7
20260508083012 47 180 2.0 4.0 0.00 0.00 0.00 91 1014.8
20260508081651 47 169 2.0 5.0 0.00 0.00 0.00 90 1014.8
20260508080046 48 182 2.0 6.0 0.00 0.00 0.00 91 1014.9
20260508074518 48 165 4.0 5.0 0.00 0.00 0.00 90 1014.8
20260508073130 47 181 3.0 5.0 0.00 0.00 0.00 90 1014.7
20260508071557 48 178 2.0 4.0 0.00 0.00 0.00 90 1014.7
20260508070010 48 178 1.0 2.0 0.00 0.00 0.00 90 1014.6
20260508064530 48 178 1.0 2.0 0.00 0.00 0.00 89 1014.6
20260508063128 49 179 1.0 2.0 0.00 0.00 0.00 89 1014.7
20260508061534 49 178 0.0 1.0 0.00 0.00 0.00 88 1014.6
20260508060127 50 179 0.0 1.0 0.00 0.00 0.00 88 1014.5
20260508054543 51 178 0.0 1.0 0.00 0.00 0.00 88 1014.3
20260508053005 52 178 0.0 1.0 0.00 0.00 0.00 87 1014.3
20260508051556 52 178 1.0 3.0 0.00 0.00 0.00 86 1014.2
20260508050008 53 141 1.0 4.0 0.00 0.00 0.00 85 1014.2
20260508044602 54 150 3.0 6.0 0.00 0.00 0.00 85 1014.0
20260508043023 54 184 4.0 7.0 0.00 0.00 0.00 84 1013.9
20260508041615 55 193 2.0 7.0 0.00 0.00 0.00 83 1013.7
20260508040042 55 137 4.0 8.0 0.00 0.00 0.00 83 1013.4
20260508034626 55 193 4.0 8.0 0.00 0.00 0.00 83 1013.2
20260508033047 56 180 3.0 5.0 0.00 0.00 0.00 83 1013.0
20260508031506 57 195 4.0 6.0 0.00 0.00 0.00 82 1012.7
20260508030100 58 162 2.0 6.0 0.00 0.00 0.00 81 1012.6
20260508024530 60 206 2.0 6.0 0.00 0.00 0.00 78 1012.5
20260508023110 62 194 2.0 5.0 0.00 0.00 0.00 74 1012.3
20260508021529 64 209 2.0 6.0 0.00 0.00 0.00 71 1012.3
20260508020125 65 131 2.0 7.0 0.00 0.00 0.00 68 1012.2
20260508014545 66 150 1.0 6.0 0.00 0.00 0.00 68 1012.2
20260508013002 67 91 2.0 7.0 0.00 0.00 0.00 68 1012.0
20260508011601 68 133 3.0 7.0 0.00 0.00 0.00 69 1012.0
20260508010031 68 200 5.0 10.0 0.00 0.00 0.00 68 1012.0
20260508004610 70 192 4.0 9.0 0.00 0.00 0.00 66 1012.0
20260508003030 71 224 4.0 8.0 0.00 0.00 0.00 66 1012.1
20260508001624 72 115 1.0 4.0 0.00 0.00 0.00 65 1012.1
20260508000050 72 36 1.0 6.0 0.00 0.00 0.00 64 1012.1
20260507234504 72 41 1.0 5.0 0.00 0.00 0.00 64 1012.2
20260507233100 73 38 2.0 5.0 0.00 0.00 0.00 63 1012.3
20260507231522 73 5 2.0 5.0 0.00 0.00 0.00 65 1012.4
20260507230110 72 52 1.0 7.0 0.00 0.00 0.00 65 1012.4
20260507224531 73 81 3.0 9.0 0.00 0.00 0.00 64 1012.6
20260507223123 72 20 1.0 8.0 0.00 0.00 0.00 66 1012.6
20260507221540 72 38 2.0 5.0 0.00 0.00 0.00 65 1012.8
20260507220131 71 60 2.0 8.0 0.00 0.00 0.00 68 1013.0
20260507214600 71 22 3.0 9.0 0.00 0.00 0.00 66 1013.2
20260507213007 71 30 3.0 9.0 0.00 0.00 0.00 66 1013.4
20260507211610 71 13 2.0 6.0 0.00 0.00 0.00 68 1013.5
20260507210018 71 44 2.0 8.0 0.00 0.00 0.00 68 1013.6
20260507204607 70 360 1.0 8.0 0.00 0.00 0.00 69 1013.6
20260507203038 70 26 3.0 8.0 0.00 0.00 0.00 68 1013.9
20260507201621 70 42 3.0 9.0 0.00 0.00 0.00 68 1014.1
20260507200053 69 17 2.0 5.0 0.00 0.00 0.00 72 1014.1
20260507194623 68 9 2.0 5.0 0.00 0.00 0.00 75 1014.2
20260507193022 67 334 1.0 5.0 0.00 0.00 0.00 75 1014.4
20260507191609 66 24 2.0 5.0 0.00 0.00 0.00 77 1014.7
20260507190032 64 136 1.0 6.0 0.00 0.00 0.00 77 1014.8
20260507184550 64 30 1.0 5.0 0.00 0.00 0.00 79 1015.0
20260507183046 63 129 2.0 7.0 0.00 0.00 0.00 80 1015.1
20260507181537 62 40 1.0 5.0 0.00 0.00 0.00 84 1015.1
20260507180037 61 45 1.0 5.0 0.00 0.00 0.00 84 1015.2
20260507174528 59 74 2.0 4.0 0.00 0.00 0.00 87 1015.3
20260507173030 58 138 2.0 6.0 0.00 0.00 0.00 87 1015.3
20260507171518 57 153 0.0 4.0 0.00 0.00 0.00 88 1015.3
20260507170016 57 114 2.0 4.0 0.00 0.00 0.00 88 1015.3
20260507164511 57 97 1.0 3.0 0.00 0.00 0.00 90 1015.2
20260507163010 56 59 2.0 7.0 0.00 0.00 0.00 89 1015.2